Regional Weather Roundup
Issued by NWS

Home | Current Version | Previous Version | Text Only | Print | Product List | Glossary On
Versions: 1 2 3 4 5 6 7 8 9 10 11 12 13 14 15 16 17 18 19 20 21 22 23 24 25 26 27 28 29 30 31 32 33 34 35 36 37 38 39 40 41 42 43 44 45 46 47 48 49 50
000
ASUS44 KLIX 130201
RWRLA
LOUISIANA WEATHER ROUNDUP
NATIONAL WEATHER SERVICE NEW ORLEANS LA
900 PM CDT SAT JUL 12 2014

NOTE: "FAIR" INDICATES FEW OR NO CLOUDS BELOW 12,000 FEET WITH NO
      SIGNIFICANT WEATHER AND/OR OBSTRUCTIONS TO VISIBILITY.
      SKY/WX - SKY CONDITION AND SIGNIFICANT WEATHER.
      TMP - AIR TEMPERATURE.    DP   - DEWPOINT TEMPERATURE.
      RH  - RELATIVE HUMIDITY.  PRES - PRESSURE.
      HX  - HEAT INDEX.         WCI  - WIND CHILL INDEX.

*  THESE STATIONS ARE NOT NWS OR FAA STATIONS AND ARE NOT UNDER
   NWS QUALITY CONTROL.

LAZ040-048-061>063-065-066-069-130300-
SOUTHEAST LOUISIANA

CITY           SKY/WX    TMP DP  RH WIND       PRES   REMARKS
N.O. AUDUBON     N/A     84  75  75 MISG        N/A
N.O. INTL ARPT MOCLDY    83  73  72 CALM      30.07R
N.O. LAKEFRONT PTCLDY    85  73  67 CALM      30.07F
N.O. DOWNTOWN* FAIR      84  72  65 NE6       30.07S
SLIDELL        PTCLDY    76  72  87 CALM      30.06F
BATON ROUGE    MOCLDY    84  75  74 N3        30.07R THUNDER
BOOTHVILLE     PTCLDY    83  75  77 CALM      30.06F
BELLE CHASSE   MOCLDY    82  69  64 S3        30.05F
BOGALUSA*      FAIR      81  72  74 CALM      30.08S
GALLIANO*      NOT AVBL
NEW ROADS*     FAIR      80  76  88 CALM      30.07R
GONZALES*      FAIR      80  78  93 CALM      30.06R
HAMMOND*       PTCLDY    81  73  78 CALM      30.09R
HOUMA*         MOCLDY    83  72  70 CALM      30.07R
PORT FOURCHON* CLEAR     86  73  66 SW3       30.08F

$$

LAZ041-044-053-054-130300-
SOUTHWEST LOUISIANA

CITY           SKY/WX    TMP DP  RH WIND       PRES   REMARKS
LAKE CHARLES   CLOUDY    75  73  93 NW5       30.07S
LAFAYETTE      PTCLDY    82  72  71 W3        30.07S
PATTERSON      PTCLDY    82  77  83 W6        30.12R
SALT POINT       N/A     86  77  74 CALM      30.07R HX  97
NEW IBERIA     PTCLDY    79  73  82 CALM      30.08R
CHENAULT AIRPK CLEAR     75  72  88 CALM      30.09S

$$

LAZ027-028-130300-
CENTRAL LOUISIANA

CITY           SKY/WX    TMP DP  RH WIND       PRES   REMARKS
FORT POLK      PTCLDY    79  72  79 CALM      30.08F
ALEXANDRIA INT PTCLDY    79  74  84 SW3       30.07R
ALEXANDRIA     PTCLDY    80  74  81 CALM      30.08S

$$

LAZ001-002-130300-
NORTHWEST LOUISIANA

CITY           SKY/WX    TMP DP  RH WIND       PRES   REMARKS
SHREVEPORT     MOCLDY    81  72  74 CALM      30.06S
BARKSDALE AFB  NOT AVBL
DTN SHREVEPORT MOCLDY    83  69  62 CALM      30.06S

$$

LAZ014-016-130300-
NORTHEAST LOUISIANA

CITY           SKY/WX    TMP DP  RH WIND       PRES   REMARKS
MONROE         CLEAR     84  75  74 E3        30.08R
TALLULAH       CLEAR     79  76  90 CALM      30.07R

$$




USA.gov is the U.S. government's official web portal to all federal, state and local government web resources and services.